Location: Bonneuil
(46.1010°N, 2.9693°E)
Time: 22:56:20
(UTC+00:00)

Terra - Pass Details

Date: 09 April 2020
Orbit: 701 x 703 km, 98.2° (Epoch: 05 June)

Event Time Altitude Azimuth Distance (km) Brightness Sun altitude
Exits shadow 20:31:23 21° 65° (ENE) 1,568 3.3 -20.2°
Maximum altitude 20:31:34 21° 62° (ENE) 1,567 3.4 -20.2°
Drops below altitude 10° 20:35:04 10° 14° (NNE) 2,181 4.6 -20.7°
Sets 20:37:48 0° 359° (N) 3,105 5.7 -21.1°
